Caribou, ME

6:39 AM EDT on August 30, 2016 (GMT -0400)
Caribou Municipal

Weather History for KCAR - July, 2013

Change the Weather History Date:

Thursday, July 11, 2013

  Actual Average Record
Temperature  
Mean Temperature 70 °F 66 °F  
Max Temperature 83 °F 76 °F 88 °F (1943)
Min Temperature 56 °F 55 °F 42 °F (1968)
Degree Days  
Heating Degree Days 0 2  
Month to date heating degree days 3 26  
Since 1 June heating degree days 181 191  
Since 1 July heating degree days 3 26  
Cooling Degree Days 5 3  
Month to date cooling degree days 63 23  
Year to date cooling degree days 94 62  
Since 1 June cooling degree days 86 57  
Growing Degree Days 21 (Base 50)    
Moisture  
Dew Point 60 °F    
Average Humidity 70    
Maximum Humidity 100    
Minimum Humidity 40    
Precipitation  
Precipitation 0.00 in 0.14 in 1.04 in (1979)
Month to date precipitation 0.03 1.51  
Year to date precipitation 20.11 18.41  
Snow  
Snow 0.00 in 0.00 in 0.00 in (2002)
Month to date snowfall 0.0 0.0  
Since 1 June snowfall 0.0 0.0  
Since 1 July snowfall 0.0 0.0  
Snow Depth 0.00 in    
Sea Level Pressure  
Sea Level Pressure 29.79 in    
Wind  
Wind Speed 9 mph (WSW)    
Max Wind Speed 18 mph    
Max Gust Speed 24 mph    
Visibility 10 miles    
Events      
T = Trace of Precipitation, MM = Missing Value Source: NWS Daily Summary

Daily Weather History Graph

Daily Weather History Graph

Search for Another Location

Airport or City:

Trip Planner

Search our weather history database for the weather conditions in past years. The results will help you decide how hot, cold, wet, or windy it might be!

Date:

Astronomy

Jul. 11, 2013 Rise Set
Actual Time 4:49 AM EDT 8:25 PM EDT
Civil Twilight 4:10 AM EDT 9:03 PM EDT
Nautical Twilight 3:19 AM EDT 9:54 PM EDT
Astronomical Twilight 2:09 AM EDT 11:04 PM EDT
Moon 8:19 AM EDT (7/11) 9:46 PM EDT (7/11)
Length of Visible Light 16h 53m
Length of Day
15h 36m
Waxing Crescent, 10% of the Moon is Illuminated
Jul 11
Waxing Crescent
Jul 15
First Quarter
Jul 22
Full
Jul 29
Last Quarter
Aug 6
New

Hourly Weather History & Observations

Time (EDT) Temp. Heat Index Dew Point Humidity Pressure Visibility Wind Dir Wind Speed Gust Speed Precip Events Conditions
12:54 AM 64.9 °F - 64.0 °F 97% 29.73 in 7.0 mi South 6.9 mph - 0.01 in   Overcast
1:13 AM 64.4 °F - 64.4 °F 100% 29.71 in 7.0 mi South 8.1 mph - N/A   Overcast
1:54 AM 64.9 °F - 64.0 °F 97% 29.71 in 8.0 mi South 6.9 mph - N/A   Overcast
2:54 AM 66.0 °F - 64.0 °F 93% 29.68 in 6.0 mi South 8.1 mph - N/A   Overcast
3:46 AM 66.2 °F - 64.4 °F 94% 29.68 in 10.0 mi South 10.4 mph - N/A   Overcast
3:54 AM 66.9 °F - 64.9 °F 93% 29.68 in 10.0 mi South 10.4 mph - N/A   Overcast
4:54 AM 66.9 °F - 64.9 °F 93% 29.70 in 10.0 mi South 6.9 mph - N/A   Overcast
5:39 AM 66.2 °F - 64.4 °F 94% 29.71 in 10.0 mi SSW 8.1 mph - N/A   Overcast
5:54 AM 66.9 °F - 64.9 °F 93% 29.72 in 10.0 mi South 8.1 mph - N/A   Overcast
6:54 AM 66.9 °F - 64.9 °F 93% 29.73 in 10.0 mi South 8.1 mph - N/A   Scattered Clouds
7:07 AM 66.2 °F - 64.4 °F 94% 29.73 in 10.0 mi SSW 6.9 mph - N/A   Mostly Cloudy
7:39 AM 69.8 °F - 64.4 °F 83% 29.73 in 10.0 mi Variable 6.9 mph - N/A   Scattered Clouds
7:54 AM 69.1 °F - 64.9 °F 87% 29.74 in 10.0 mi SSW 8.1 mph - N/A   Partly Cloudy
8:54 AM 71.1 °F - 64.9 °F 81% 29.73 in 10.0 mi SW 9.2 mph - N/A   Clear
9:54 AM 73.0 °F - 64.9 °F 76% 29.74 in 10.0 mi SW 9.2 mph - N/A   Clear
10:54 AM 75.9 °F - 63.0 °F 64% 29.75 in 10.0 mi WSW 12.7 mph 24.2 mph N/A   Mostly Cloudy
11:54 AM 75.9 °F - 62.1 °F 62% 29.75 in 10.0 mi WSW 13.8 mph - N/A   Clear
12:54 PM 78.1 °F - 61.0 °F 56% 29.77 in 10.0 mi WSW 9.2 mph - N/A   Mostly Cloudy
1:54 PM 79.0 °F - 60.1 °F 52% 29.77 in 10.0 mi West 6.9 mph - N/A   Partly Cloudy
2:54 PM 82.0 °F 81.4 °F 55.0 °F 39% 29.77 in 10.0 mi West 11.5 mph 18.4 mph N/A   Partly Cloudy
3:54 PM 77.0 °F - 57.9 °F 52% 29.80 in 10.0 mi NNW 11.5 mph 20.7 mph N/A   Mostly Cloudy
4:54 PM 78.1 °F - 57.0 °F 48% 29.81 in 10.0 mi North 10.4 mph 19.6 mph N/A   Scattered Clouds
5:54 PM 77.0 °F - 53.1 °F 43% 29.84 in 10.0 mi NNW 11.5 mph 20.7 mph N/A   Clear
6:54 PM 73.9 °F - 52.0 °F 46% 29.87 in 10.0 mi NNW 8.1 mph 20.7 mph N/A   Clear
7:54 PM 69.1 °F - 52.0 °F 54% 29.90 in 10.0 mi NNW 6.9 mph - N/A   Clear
8:54 PM 64.0 °F - 53.1 °F 67% 29.93 in 10.0 mi NNW 6.9 mph - N/A   Clear
9:54 PM 62.1 °F - 50.0 °F 65% 29.97 in 10.0 mi NNW 8.1 mph 17.3 mph N/A   Clear
10:54 PM 60.1 °F - 50.0 °F 69% 29.99 in 10.0 mi NNW 5.8 mph - N/A   Clear
11:54 PM 57.9 °F - 50.0 °F 75% 30.01 in 10.0 mi NNW 9.2 mph - N/A   Clear